FWV007 EDDM-LOWI

Flight info

Callsign FWV007
Flight time 0h 33m
Altitude 15000
Route TURBU7Q TURBU Y107 RTT RTT1B
Aircraft A320/M-SDE3FGHIRWY/LB1

Departure

Time 2026-05-01 14:58
Airport Munich Airport (EDDM)

Arrival

Time 2026-05-01 15:32
Airport Innsbruck Airport (LOWI)
Time Latitude Longitude Altitude Speed Heading
2026-05-01 14:14 48.35323 11.78324 1466 ft 0 kts 80°
2026-05-01 14:44 48.35318 11.78279 1462 ft 4 kts 77°
2026-05-01 14:44 48.35310 11.78241 1456 ft 4 kts 65°
2026-05-01 14:45 48.35296 11.78211 1457 ft 4 kts 20°
2026-05-01 14:45 48.35283 11.78208 1464 ft 0 kts 353°
2026-05-01 14:49 48.35289 11.78207 1458 ft 3 kts 353°
2026-05-01 14:49 48.35359 11.78193 1459 ft 5 kts 344°
2026-05-01 14:50 48.35375 11.78077 1466 ft 11 kts 263°
2026-05-01 14:50 48.35341 11.77840 1459 ft 8 kts 217°
2026-05-01 14:51 48.35284 11.77834 1464 ft 10 kts 174°
2026-05-01 14:51 48.35083 11.77869 1465 ft 17 kts 173°
2026-05-01 14:52 48.34888 11.77896 1463 ft 11 kts 185°
2026-05-01 14:52 48.34821 11.77876 1462 ft 9 kts 188°
2026-05-01 14:52 48.34709 11.77891 1465 ft 7 kts 174°
2026-05-01 14:53 48.34666 11.77863 1461 ft 9 kts 231°
2026-05-01 14:53 48.34650 11.77734 1465 ft 17 kts 264°
2026-05-01 14:53 48.34639 11.77579 1466 ft 17 kts 263°
2026-05-01 14:53 48.34626 11.77408 1466 ft 16 kts 263°
2026-05-01 14:54 48.34614 11.77252 1466 ft 15 kts 263°
2026-05-01 14:54 48.34602 11.77105 1466 ft 14 kts 263°
2026-05-01 14:54 48.34592 11.76970 1462 ft 13 kts 263°
2026-05-01 14:54 48.34582 11.76845 1463 ft 11 kts 263°
2026-05-01 14:55 48.34571 11.76738 1466 ft 10 kts 252°
2026-05-01 14:55 48.34524 11.76689 1465 ft 8 kts 182°
2026-05-01 14:55 48.34462 11.76699 1461 ft 9 kts 170°
2026-05-01 14:55 48.34409 11.76746 1462 ft 10 kts 123°
2026-05-01 14:56 48.34378 11.76850 1460 ft 12 kts 114°
2026-05-01 14:56 48.34343 11.76973 1462 ft 12 kts 113°
2026-05-01 14:56 48.34316 11.77064 1463 ft 9 kts 113°
2026-05-01 14:56 48.34289 11.77159 1464 ft 11 kts 113°
2026-05-01 14:57 48.34262 11.77257 1460 ft 10 kts 112°
2026-05-01 14:57 48.34243 11.77399 1467 ft 0 kts 82°
2026-05-01 14:58 48.34246 11.77430 1468 ft 22 kts 83°
2026-05-01 14:58 48.34295 11.78078 1464 ft 98 kts 83°
2026-05-01 14:58 48.34397 11.79412 1512 ft 151 kts 83°
2026-05-01 14:58 48.34503 11.80855 2430 ft 134 kts 83°
2026-05-01 14:59 48.34607 11.82288 3216 ft 141 kts 84°
2026-05-01 14:59 48.34722 11.83852 3691 ft 161 kts 85°
2026-05-01 14:59 48.34856 11.85641 4112 ft 184 kts 83°
2026-05-01 14:59 48.35011 11.87680 4535 ft 209 kts 84°
2026-05-01 15:00 48.35369 11.92318 6045 ft 233 kts 85°
2026-05-01 15:00 48.35327 11.94780 6866 ft 241 kts 108°
2026-05-01 15:00 48.34424 11.96898 7695 ft 248 kts 137°
2026-05-01 15:01 48.33067 11.98519 8677 ft 250 kts 140°
2026-05-01 15:01 48.31674 12.00138 9583 ft 256 kts 140°
2026-05-01 15:01 48.30181 12.01669 10420 ft 265 kts 151°
2026-05-01 15:01 48.28404 12.02560 11165 ft 279 kts 167°
2026-05-01 15:02 48.26385 12.02657 11652 ft 299 kts 180°
2026-05-01 15:02 48.24994 12.02557 12135 ft 305 kts 180°
2026-05-01 15:02 48.22128 12.02366 13257 ft 311 kts 179°
2026-05-01 15:02 48.19982 12.02232 14063 ft 316 kts 179°
2026-05-01 15:03 48.17769 12.02098 14790 ft 320 kts 179°
2026-05-01 15:03 48.15524 12.01967 15183 ft 324 kts 179°
2026-05-01 15:03 48.13262 12.01837 15309 ft 329 kts 179°
2026-05-01 15:03 48.10878 12.01708 15347 ft 358 kts 179°
2026-05-01 15:04 48.08991 12.01608 15333 ft 379 kts 179°
2026-05-01 15:04 48.06307 12.01121 15337 ft 396 kts 189°
2026-05-01 15:04 48.03635 12.00030 15340 ft 400 kts 194°
2026-05-01 15:04 48.00961 11.98881 15334 ft 400 kts 193°
2026-05-01 15:05 47.98281 11.97740 15332 ft 400 kts 193°
2026-05-01 15:05 47.95600 11.96614 15334 ft 400 kts 193°
2026-05-01 15:05 47.92919 11.95510 15325 ft 400 kts 191°
2026-05-01 15:05 47.90183 11.94884 15326 ft 396 kts 180°
2026-05-01 15:06 47.87470 11.94816 15327 ft 395 kts 177°
2026-05-01 15:06 47.84718 11.94776 15322 ft 395 kts 178°
2026-05-01 15:06 47.81968 11.94721 15323 ft 396 kts 178°
2026-05-01 15:06 47.79520 11.94667 15327 ft 396 kts 178°
2026-05-01 15:07 47.76710 11.94604 15315 ft 396 kts 178°
2026-05-01 15:07 47.73958 11.94545 15312 ft 396 kts 178°
2026-05-01 15:07 47.71202 11.94492 15315 ft 396 kts 178°
2026-05-01 15:07 47.68447 11.94448 15311 ft 396 kts 178°
2026-05-01 15:08 47.65692 11.94404 15312 ft 396 kts 178°
2026-05-01 15:08 47.62970 11.94356 15300 ft 395 kts 178°
2026-05-01 15:08 47.60223 11.94304 15299 ft 396 kts 178°
2026-05-01 15:08 47.57466 11.94253 15297 ft 396 kts 178°
2026-05-01 15:09 47.54708 11.94206 15289 ft 396 kts 178°
2026-05-01 15:09 47.51949 11.94158 15302 ft 397 kts 178°
2026-05-01 15:09 47.49198 11.93805 15288 ft 399 kts 191°
2026-05-01 15:09 47.46600 11.92342 15290 ft 403 kts 208°
2026-05-01 15:10 47.44391 11.89809 15291 ft 405 kts 226°
2026-05-01 15:10 47.41929 11.82488 15287 ft 401 kts 262°
2026-05-01 15:10 47.41512 11.78415 15283 ft 401 kts 263°
2026-05-01 15:11 47.41106 11.74340 15274 ft 401 kts 263°
2026-05-01 15:11 47.40288 11.66251 15268 ft 401 kts 263°
2026-05-01 15:11 47.39871 11.62174 15266 ft 401 kts 263°
2026-05-01 15:12 47.39452 11.58109 15267 ft 401 kts 263°
2026-05-01 15:12 47.38607 11.49990 15258 ft 400 kts 263°
2026-05-01 15:12 47.38182 11.45936 15255 ft 400 kts 264°
2026-05-01 15:13 47.36925 11.33819 15254 ft 401 kts 263°
2026-05-01 15:14 47.36077 11.25783 15098 ft 386 kts 262°
2026-05-01 15:14 47.35662 11.21939 14992 ft 375 kts 262°
2026-05-01 15:14 47.34844 11.14398 14757 ft 371 kts 262°
2026-05-01 15:15 47.34031 11.06901 14501 ft 369 kts 262°
2026-05-01 15:15 47.33219 10.99431 14273 ft 369 kts 262°
2026-05-01 15:16 47.32430 10.92037 14029 ft 367 kts 262°
2026-05-01 15:16 47.31627 10.84617 13764 ft 365 kts 262°
2026-05-01 15:17 47.30856 10.77260 13502 ft 357 kts 262°
2026-05-01 15:18 47.29798 10.67034 13287 ft 321 kts 262°
2026-05-01 15:18 47.29457 10.63804 13297 ft 318 kts 262°
2026-05-01 15:19 47.28453 10.54210 13289 ft 305 kts 260°
2026-05-01 15:19 47.26316 10.49364 13296 ft 282 kts 207°
2026-05-01 15:19 47.24482 10.48550 13291 ft 274 kts 179°
2026-05-01 15:20 47.21238 10.50751 13295 ft 262 kts 122°
2026-05-01 15:20 47.20562 10.53186 13296 ft 257 kts 94°
2026-05-01 15:20 47.20711 10.55788 13292 ft 257 kts 76°
2026-05-01 15:21 47.21144 10.58332 13293 ft 256 kts 71°
2026-05-01 15:21 47.21787 10.60708 13291 ft 245 kts 64°
2026-05-01 15:21 47.22518 10.62917 13262 ft 239 kts 63°
2026-05-01 15:21 47.23272 10.65135 12857 ft 244 kts 63°
2026-05-01 15:22 47.24798 10.69597 12226 ft 247 kts 63°
2026-05-01 15:22 47.25545 10.71873 11957 ft 246 kts 66°
2026-05-01 15:22 47.26194 10.74185 11747 ft 243 kts 68°
2026-05-01 15:23 47.26822 10.76492 11412 ft 243 kts 68°
2026-05-01 15:23 47.27448 10.78797 11030 ft 240 kts 68°
2026-05-01 15:23 47.28061 10.81061 10655 ft 236 kts 68°
2026-05-01 15:23 47.28667 10.83295 10292 ft 233 kts 68°
2026-05-01 15:24 47.29258 10.85480 9942 ft 227 kts 69°
2026-05-01 15:24 47.29740 10.87646 9600 ft 219 kts 79°
2026-05-01 15:24 47.29996 10.89791 9288 ft 213 kts 81°
2026-05-01 15:24 47.30220 10.91900 9000 ft 204 kts 81°
2026-05-01 15:25 47.30431 10.93918 8683 ft 195 kts 81°
2026-05-01 15:25 47.30596 10.95856 8389 ft 187 kts 85°
2026-05-01 15:25 47.30681 10.97765 8117 ft 187 kts 86°
2026-05-01 15:25 47.30754 10.99676 7833 ft 185 kts 86°
2026-05-01 15:26 47.30824 11.01529 7562 ft 177 kts 86°
2026-05-01 15:26 47.30889 11.03271 7325 ft 166 kts 85°
2026-05-01 15:26 47.30954 11.04924 7072 ft 158 kts 84°
2026-05-01 15:26 47.30954 11.06497 6828 ft 155 kts 94°
2026-05-01 15:27 47.30731 11.08031 6588 ft 152 kts 105°
2026-05-01 15:27 47.30318 11.09462 6327 ft 151 kts 114°
2026-05-01 15:27 47.29859 11.10861 6064 ft 152 kts 114°
2026-05-01 15:28 47.28938 11.13645 5560 ft 151 kts 113°
2026-05-01 15:28 47.28478 11.15032 5291 ft 149 kts 113°
2026-05-01 15:28 47.28026 11.16398 5015 ft 148 kts 114°
2026-05-01 15:29 47.27125 11.19122 4439 ft 147 kts 114°
2026-05-01 15:29 47.26681 11.20464 4145 ft 145 kts 114°
2026-05-01 15:29 47.25815 11.23085 3677 ft 143 kts 111°
2026-05-01 15:30 47.25188 11.25792 3184 ft 138 kts 93°
2026-05-01 15:31 47.25700 11.31348 2227 ft 134 kts 80°
2026-05-01 15:31 47.25977 11.33972 1917 ft 118 kts 79°
2026-05-01 15:32 47.26101 11.35134 1910 ft 18 kts 82°
2026-05-01 15:32 47.26040 11.35263 1910 ft 7 kts 172°
2026-05-01 15:33 47.25937 11.35288 1910 ft 3 kts 170°
2026-05-01 15:34 47.25896 11.35205 1912 ft 6 kts 261°